Regional Weather Roundup
Issued by NWS Albany, NY

Home | Current Version | Previous Version | Text Only | Print | Product List | Glossary On
Versions: 1 2 3 4 5 6 7 8 9 10 11 12 13 14 15 16 17 18 19 20 21 22 23 24 25 26 27 28 29 30 31 32 33 34 35 36 37 38 39 40 41 42 43 44 45 46 47 48 49 50
000
ASUS41 KALY 250110
RWRALY

NEW YORK STATE HOURLY WEATHER ROUNDUP
NATIONAL WEATHER SERVICE ALBANY NY
800 PM EST SAT JAN 24 2015

NOTE: "FAIR" INDICATES FEW OR NO CLOUDS BELOW 12,000 FEET WITH NO
SIGNIFICANT WEATHER AND/OR NO OBSTRUCTIONS TO VISIBILITY.

NYZ032-033-038>043-046>054-057>066-NYZ062>081-250200-
EAST


CITY           SKY/WX    TMP DP  RH WIND       PRES   REMARKS
ALBANY         CLOUDY    31  22  69 W17G29    29.38R WCI  19
GLENS FALLS    CLOUDY    24  20  84 S5        29.34R FOG     WCI  18
POUGHKEEPSIE   FOG       27  24  89 CALM      29.38R VSB 1/4
NEWBURGH       PTCLDY    34  30  86 NW17      29.37R WCI  23
MONTGOMERY     PTCLDY    35  23  61 W7        29.38R WCI  29
WHITE PLAINS   PTCLDY    33  30  88 NW10      29.35R WCI  25
ISLIP          CLOUDY    35  32  88 W7        29.35R WCI  29
NEW YORK CITY  PTCLDY    38  27  64 NW15G23   29.39R WCI  29
CENTRAL PARK   CLEAR     38  25  59 VRB7G18   29.41R WCI  33
$$

NYZ005>009-017-018-044>046-055-056-250200-
CENTRAL


CITY           SKY/WX    TMP DP  RH WIND       PRES   REMARKS
FULTON         MIX PCPN  30  26  85 W10       29.46S FOG     WCI  21
SYRACUSE       FRZ DRZL  27  27 100 SW12      29.46F FOG     WCI  17
ROME           CLOUDY    27  25  92 W9        29.46S FOG     WCI  18
ELMIRA         CLOUDY    31  24  75 W14G22    29.48S WCI  21
BINGHAMTON     CLOUDY    26  21  81 W10       29.42R WCI  16
MONTICELLO     MOCLDY    28  21  74 NW15G26   29.38R WCI  17
$$

NYZ026>034-041>043-250200-
NORTH


CITY           SKY/WX    TMP DP  RH WIND       PRES   REMARKS
WATERTOWN      LGT SNOW  32  29  88 W10       29.42F FOG     WCI  24
FORT DRUM      NOT AVBL
MASSENA        LGT SNOW  29  29 100 SW8       29.39F FOG     WCI  21
SARANAC LAKE   LGT SNOW  24  22  91 SW6       29.29F FOG     WCI  17
PLATTSBURGH    CLOUDY    29  24  82 CALM      29.33F
$$

NYZ001>004-010>016-019>021-250200-
WEST


CITY           SKY/WX    TMP DP  RH WIND       PRES   REMARKS
NIAGARA FALLS  LGT SNOW  30  27  88 W13       29.51S FOG     WCI  20
BUFFALO        FRZ RAIN  30  28  92 SW15      29.51S FOG     WCI  19
DUNKIRK        LGT SNOW  31  29  92 W15G22    29.56S FOG     WCI  20
JAMESTOWN      CLOUDY    27  25  93 SW14      29.51S WCI  15
WELLSVILLE     CLOUDY    25  22  88 W14G25    29.47S WCI  13
ROCHESTER      FLURRIES  31  28  89 W13       29.48F WCI  21
PENN YAN       CLOUDY    31  24  75 W16       29.47R WCI  20
$$

             KEY
       WCI = WIND CHILL INDEX
       VSB = VISIBILITY
       HX  = HEAT INDEX
$$


USA.gov is the U.S. government's official web portal to all federal, state and local government web resources and services.